Flag for India Weather past 2 weeks in Gurgaon, Haryana, India

Now
95 °F

Broken clouds.


Feels Like: 105 °F
Forecast: 82 / 92 °F
Wind: 3 mph from South

Location: New Delhi Palam Airport

Current Time: Aug 4, 2015 at 6:20:30 PM

Latest Report: Aug 4, 2015 at 5:30 PM


Visibility: 2 mi

Pressure: 29.50 "Hg

Humidity: 50%

Dew point: 73 °F

Location of GurgaonLocation

Historic Weather in Gurgaon — Graph

°F

Gurgaon temperature yesterday

Maximum temperature yesterday: 95 °F (at 4:00 PM)
Minimum temperature yesterday: 79 °F (at 3:30 AM)
Average temperature yesterday: 86 °F

Past Weeks' High & Low Weather Summary

 TemperatureHumidityPressure
High95 °F (Jul 21, 3:30 PM)100% (Jul 31, 4:30 AM)29.74 "Hg (Jul 31, 4:30 AM)
Low77 °F (Jul 29, 5:30 AM)47% (Aug 4, 2:00 PM)29.45 "Hg (Jul 29, 5:00 PM)
Average85 °F75%29.59 "Hg
* Reported Jul 20 4:30 PM — Aug 4 5:00 PM, Gurgaon, Weather by CustomWeather, © 2015

Note: Actual official high and low records may vary slightly from our data, if they occured in-between our weather recording intervals... More about our weather records

Advertising

Gurgaon weather history for previous 24 hours

 ConditionsComfort  
Time TempWeatherWind HumidityBarometerVisibility
5:00 PM
Tue, Aug 4
95 °FBroken clouds.3 mph50%29.50 "Hg2 mi
4:30 PM95 °FBroken clouds.No wind50%29.53 "Hg2 mi
4:00 PM95 °FBroken clouds.3 mph50%29.53 "Hg2 mi
3:30 PM95 °FBroken clouds.3 mph50%29.53 "Hg2 mi
3:00 PM95 °FBroken clouds.3 mph50%29.56 "Hg2 mi
2:30 PM95 °FBroken clouds.5 mph50%29.56 "Hg2 mi
2:00 PM95 °FBroken clouds.5 mph47%29.59 "Hg2 mi
1:30 PM93 °FBroken clouds.5 mph49%29.59 "Hg2 mi
1:00 PM91 °FBroken clouds.3 mph52%29.62 "Hg2 mi
12:30 PM91 °FBroken clouds.5 mph52%29.62 "Hg2 mi
12:00 PM91 °FBroken clouds.No wind52%29.62 "Hg2 mi
11:30 AM90 °FBroken clouds.3 mph55%29.62 "Hg2 mi
11:00 AM88 °FBroken clouds.3 mph62%29.62 "Hg2 mi
10:30 AM88 °FBroken clouds.5 mph62%29.65 "Hg2 mi
9:30 AM86 °FBroken clouds.5 mph66%29.65 "Hg2 mi
9:00 AM84 °FBroken clouds.5 mph66%29.65 "Hg2 mi
8:30 AM84 °FBroken clouds.6 mph66%29.65 "Hg2 mi
8:00 AM82 °FBroken clouds.5 mph70%29.65 "Hg2 mi
7:30 AM81 °FFog.No wind89%29.62 "Hg2 mi
7:00 AM81 °FFog.No wind89%29.62 "Hg2 mi
6:30 AM81 °FFog.3 mph84%29.62 "Hg2 mi
6:00 AM81 °FFog.3 mph89%29.62 "Hg2 mi
5:30 AM81 °FFog.3 mph89%29.62 "Hg2 mi
5:00 AM81 °FFog.5 mph89%29.62 "Hg2 mi
4:30 AM81 °FFog.3 mph89%29.62 "Hg2 mi
4:00 AM81 °FFog.5 mph89%29.62 "Hg2 mi
3:00 AM82 °FFog.5 mph79%29.62 "Hg2 mi
2:30 AM82 °FFog.3 mph79%29.62 "Hg2 mi
2:00 AM82 °FFog.5 mph79%29.62 "Hg2 mi
1:30 AM82 °FFog.6 mph79%29.65 "Hg2 mi
1:00 AM82 °FPassing clouds.6 mph79%29.65 "Hg2 mi
12:30 AM84 °FPassing clouds.No wind74%29.62 "Hg2 mi
12:00 AM84 °FPassing clouds.No wind74%29.62 "Hg2 mi
11:30 PM
Mon, Aug 3
84 °FPassing clouds.3 mph74%29.65 "Hg2 mi
11:00 PM84 °FPassing clouds.6 mph74%29.65 "Hg2 mi
10:30 PM84 °FPartly cloudy.6 mph74%29.65 "Hg2 mi
10:00 PM84 °FPartly cloudy.6 mph74%29.65 "Hg2 mi
9:30 PM84 °FPartly cloudy.7 mph74%29.65 "Hg2 mi
9:00 PM84 °FThunderstorms. Partly cloudy.8 mph79%29.65 "Hg2 mi
8:30 PM84 °FThunderstorms. Partly cloudy.9 mph79%29.65 "Hg2 mi
7:30 PM90 °FBroken clouds.7 mph63%29.62 "Hg2 mi
7:00 PM91 °FBroken clouds.7 mph56%29.59 "Hg2 mi
6:30 PM91 °FBroken clouds.7 mph56%29.59 "Hg2 mi
6:00 PM93 °FScattered clouds.6 mph53%29.56 "Hg2 mi
Weather by CustomWeather, © 2015

See weather overviewHow to use our weather pages